[ hide orbit diagram ]
For accurate long-term ephemerides, please instead use our Horizons system.This orbit viewer was implemented using two-body methods, and hence should not be used for determining accurate long-term trajectories (over several years or decades) or planetary encounter circumstances.
Orbital Elements at Epoch 2459000.5 (2020-May-31.0) TDB
Reference: JPL 6 (heliocentric ecliptic J2000)
Element | Value | Uncertainty (1-sigma) | Units |
e | .06693278949220625 | 1.2786e-05 | |
a | 44.2932519780779 | 0.0014267 | au |
q | 41.32858106750397 | 0.0010016 | au |
i | .3726809313065662 | 9.5041e-05 | deg |
node | 51.36508720852748 | 0.0017847 | deg |
peri | 239.6133542647877 | 0.019502 | deg |
M | 306.6461047860928 | 0.018764 | deg |
tp | 2474958.130625960632 (2064-Feb-07.63062596) | 4.8518 | TDB |
period | 107672.4951817277 294.79 | 5.2022 0.01424 | d yr |
n | .003343472252522787 | 1.6154e-07 | deg/d |
Q | 47.25792288865184 | 0.0015222 | au |
|
| | Orbit Determination Parameters
Additional Information
|
[ show covariance matrix ]
53311 Deucalion | Discovered 1999 Apr. 18 by the Deep Ecliptic Survey at Kitt Peak. |
After a flood in which all humans were drowned except for Deucalion and Pyrrha, an oracle tells them to "throw the bones of their mother" behind them. Puzzled, they decided that their mother is Earth and her bones are stones. The stones they then threw over their shoulders sprang up into people to repopulate the world. |
NOTE: some special characters may not display properly (any characters within {} are an attempt to place the proper accent above a character) |
Reference: 20030614/MPCPages.arc | Last Updated: 2005-04-26 |
|
|